Regional Weather Roundup
Issued by NWS

Home | Current Version | Previous Version | Graphics & Text | Print | Product List | Glossary On
Versions: 1 2 3 4 5 6 7 8 9 10 11 12 13 14 15 16 17 18 19 20 21 22 23 24 25 26 27 28
000
ASUS45 KPSR 250810
RWRAZ

ARIZONA HOURLY REGIONAL WEATHER ROUNDUP
NATIONAL WEATHER SERVICE PHOENIX AZ
100 AM MST TUE JUL 25 2017

NOTE: FAIR INDICATES FEW OR NO CLOUDS BELOW 12,000 FEET WITH NO
SIGNIFICANT WEATHER AND/OR OBSTRUCTIONS TO VISIBILITY.

AZZ001>003-036-250900-
NORTHWEST ARIZONA

CITY           SKY/WX    TMP DP  RH WIND       PRES   REMARKS
KINGMAN        PTCLDY    73  67  81 CALM      30.04R
$$

AZZ004>008-015-016-018-250900-
NORTH CENTRAL ARIZONA

CITY           SKY/WX    TMP DP  RH WIND       PRES   REMARKS
GRAND CANYON   CLOUDY    61  61 100 CALM      30.25F
WILLIAMS       MOCLDY    63  61  94 CALM      30.26S
PRESCOTT       PTCLDY    67  65  93 S3        30.16S
FLAGSTAFF      CLOUDY    59  59 100 SW8       30.29S
PAYSON         MOCLDY    66  64  94 CALM      30.21S
PAGE           CLOUDY    77  60  55 N6        30.06S
$$

AZZ009>014-017-250900-
NORTHEAST ARIZONA

CITY           SKY/WX    TMP DP  RH WIND       PRES   REMARKS
WINSLOW        PTCLDY    66  64  93 E5        30.15S
SAINT JOHNS    MOCLDY    63  63 100 CALM      30.21R FOG
WINDOW ROCK    CLOUDY    63  59  87 CALM      30.29R
SHOW LOW       CLOUDY    57  55  94 S8        30.27S
$$

AZZ540-542>544-546-548-250900-
GREATER PHOENIX AREA

CITY           SKY/WX    TMP DP  RH WIND       PRES   REMARKS
PHOENIX        MOCLDY    85  72  65 SW3       29.90R
BUCKEYE        MOCLDY    82  81  94 CALM      29.90S
LUKE AFB       DRIZZLE   84  74  71 N5        29.89S
DEER VALLEY    PTCLDY    83  74  74 CALM      29.92R
SCOTTSDALE     MOCLDY    83  72  69 CALM      29.94R
MESA-GATEWAY   MOCLDY    81  73  78 SE3       29.93S
$$

AZZ539-553-250900-
SOUTHWEST MARICOPA COUNTY AND PINAL COUNTY

CITY           SKY/WX    TMP DP  RH WIND       PRES   REMARKS
CASA GRANDE    PTCLDY    81  73  76 NE5       29.94R
GILA BEND      MOCLDY    81  75  80 SE7       29.87S
$$

AZZ503-504-507>509-250900-
SOUTHEAST ARIZONA

CITY           SKY/WX    TMP DP  RH WIND       PRES   REMARKS
TUCSON         CLEAR     77  71  82 SE8       30.03R
DAVIS-MONTHAN  CLEAR     74  73  95 SE8       30.02R
NOGALES        CLEAR     69  67  93 E6        30.10F
SIERRA VISTA   PTCLDY    68  65  89 CALM      30.18R
DOUGLAS        PTCLDY    68  67  96 NE5       30.13R
SAFFORD        MOCLDY    73  71  93 SE3       30.05S
$$

AZZ532-250900-
SOUTHWEST ARIZONA

CITY           SKY/WX    TMP DP  RH WIND       PRES   REMARKS
YUMA           PTCLDY    90  63  40 S6        29.80S
$$

CAZ041-043-047-048-061-525>527-560>570-250900-
SOUTHERN CALIFORNIA

CITY           SKY/WX    TMP DP  RH WIND       PRES   REMARKS
DOWNTOWN L.A.  CLEAR     69  63  81 CALM      29.95R
L.A. AIRPORT   MOCLDY    68  64  87 W8        29.95R
SAN DIEGO      CLOUDY    71  63  75 NW5       29.97R
BURBANK        CLEAR     68  62  81 SE6       29.95R
ONTARIO        MOCLDY    70  59  68 W10       29.95S
RIVERSIDE      PTCLDY    70  64  81 W5        29.95S
PALM SPRINGS   PTCLDY    89  58  34 NW9       29.84S
EL CENTRO NAS  PTCLDY    86  65  49 SE7       29.80R
IMPERIAL       PTCLDY    86  70  58 SE9       29.77R
BLYTHE         PTCLDY    89  72  56 S5        29.82R
NEEDLES        MOCLDY    91  69  48 W3        29.86R
$$

NVZ020-UTZ003-250900-
SOUTHERN NEVADA-UTAH

CITY           SKY/WX    TMP DP  RH WIND       PRES   REMARKS
LAS VEGAS      CLOUDY    85  65  51 S7        29.90S
SALT LAKE CITY LGT RAIN  72  64  76 S9        30.09R
$$

NMZ009-TXZ055-250900-
NEW MEXICO-WEST TEXAS

CITY           SKY/WX    TMP DP  RH WIND       PRES   REMARKS
ALBUQUERQUE    MOCLDY    75  57  53 SE6       30.17S
EL PASO        MOCLDY    75  65  70 W23G29    30.11F
$$


........................KEY........................
SKY/WX - SKY CONDITION/WEATHER
TMP    - TEMPERATURE IN FAHRENHEIT
DP     - DEW POINT IN FAHRENHEIT
RH     - RELATIVE HUMIDITY IN PERCENT
WIND   - DIRECTION AND SPEED IN MILES PER HOUR (MPH)
VRB    - VARIABLE WIND DIRECTION
PRES   - MEAN SEA LEVEL PRESSURE IN INCHES OF MERCURY
         F - FALLING PRESSURE   R - RISING PRESSURE
         S - STEADY PRESSURE
VSB    - VISIBILITY IN MILES
HX     - HEAT INDEX IN FAHRENHEIT
WCI    - WIND CHILL INDEX IN FAHRENHEIT
TC     - TEMPERATURE IN CELSIUS WHICH IS ALSO KNOWN AS
         TEMPERATURE IN CENTIGRADE
AFB    - AIR FORCE BASE
         LUKE AFB IS LUKE AIR FORCE BASE
         DAVIS-MONTHAN IS DAVIS-MONTHAN AIR FORCE BASE
NAS    - NAVAL AIR STATION
         EL CENTRO NAS IS EL CENTRO NAVAL AIR STATION
N/A    - NOT AVAILABLE





USA.gov is the U.S. government's official web portal to all federal, state and local government web resources and services.